FLOCK 2E'-18 (41769 NORAD) Tracking and Keplerian Element Data

This shows tracking and keplerian element data for the satellite.

Feedback or suggestion? Click here.




ElementValue
Catalog41769
NameFLOCK 2E'-18
Epoch Orbit10555
Epoch Day203.10105789
Epoch Year2018
RAAN160.0658
Inclination51.6313
Eccentricity0.0004908
Argument of Perigee45.094
Mean Anonmoly315.0457
Mean Motion15.76466971
Decay Rate0.00056056
L11 41769U 98067KM 18203.10105789 .00056056 00000-0 34744-3 0 9999
L22 41769 51.6313 160.0658 0004908 45.0940 315.0457 15.76466971105550

Live tracking and technical data element details for FLOCK 2E'-18 (NORAD 41769). FLOCK 2E'-18 can be tracked NOW for your location showing map with azimuth and elevation plus other details from your city location.

Track the satellite on the map from your city or location and see movement details for azimuth, elevation, latitude, longitude, range, height, and movement on the map or in text.







IsCatalogInMostPopularTable: catalog: 41769, numindb: 113
Update: records affected: 1



GetName: 41769 FLOCK 2E'-18

Hit Count: updated at: Mon, 23 Jul 2018 07:37:55 GMT